[[{"header":{"parameterUnit":"m.s-1","parameterCategory":1,"la1":30.2992,"la2":30.254,"lo1":-89.0895,"lo2":-89.0443,"dy":0.0025,"dx":0.0025,"nx":19,"ny":19,"refTime":"2026-04-09T03:00:00:Z","depth":0,"parameterNumber":2,"parameterNumberName":"U-component_of_WINDS"},"data":[0,0,0,-3.5999,-3.6002,-3.611,-3.6111,-3.6286,-3.6288,0,0,0,0,0,0,0,0,0,0,0,-3.5989,-3.5991,-3.5998,-3.6002,-3.611,-3.6111,-3.6286,-3.6288,0,0,0,0,0,0,0,0,0,0,0,-3.5988,-3.5991,-3.5993,-3.6002,-3.611,-3.6111,-3.6286,-3.619,0,0,0,0,0,0,0,0,0,0,-3.6078,-3.6093,-3.599,-3.5993,-3.6003,-3.611,-3.6111,-3.6185,-3.6196,-3.6253,0,-3.631,0,-3.6302,-3.6302,-3.6303,0,0,0,-3.5985,-3.6084,-3.6092,-3.5994,-3.6004,-3.611,-3.6056,-3.6191,-3.6204,-3.6268,-3.6312,-3.6318,-3.6305,-3.6304,-3.6305,-3.6691,-3.6693,0,0,-3.5979,-3.6021,-3.6083,-3.6101,-3.6088,-3.6053,-3.606,-3.6198,-3.6249,-3.6313,-3.6321,-3.6308,-3.6305,-3.6307,-3.6688,-3.6692,0,0,0,-3.5973,-3.6018,-3.6022,-3.6095,-3.6112,-3.6057,-3.6065,-3.6243,-3.624,-3.6323,-3.631,-3.6306,-3.6309,-3.6686,-3.669,-3.686,0,0,0,-3.5968,-3.6014,-3.602,-3.6048,-3.611,-3.6179,-3.6107,-3.6231,-3.6245,-3.6309,-3.6307,-3.6311,-3.6683,-3.6688,-3.6849,-3.6934,0,0,0,-3.5975,-3.6015,-3.6038,-3.605,-3.6098,-3.6176,-3.6181,-3.6233,-3.6239,-3.6303,-3.6312,-3.6681,-3.6687,-3.6839,-3.6917,-3.7048,0,0,0,-3.5993,-3.6189,-3.6042,-3.6255,-3.6098,-3.6281,-3.6179,-3.6313,-3.639,-3.6308,-3.6683,-3.6689,-3.6836,-3.6907,-3.7037,-3.7165,-3.7222,0,0,-3.6264,-3.6223,-3.6345,-3.6217,-3.6437,-3.626,-3.6505,-3.6534,-3.6501,-3.6629,-3.6638,-3.6853,-3.6916,-3.7045,-3.7527,-3.7573,0,0,0,-3.6445,-3.6533,-3.6582,-3.6657,-3.6684,-3.6714,-3.6701,-3.6711,-3.6818,-3.6576,-3.6933,-3.697,-3.7044,-3.7103,-3.7142,-3.7202,-3.6718,-3.6718,-3.6717,-3.6889,-3.6836,-3.7035,-3.6995,-3.7069,-3.7053,-3.7108,-3.7119,-3.7044,-3.713,-3.7168,-3.7467,-3.7537,-3.7566,-3.763,-3.7231,-3.7231,-3.7232,-3.7232,-3.7281,-3.7397,-3.7293,-3.7448,-3.7391,-3.752,-3.7513,-3.7456,-3.7567,-3.7434,-3.7496,-3.7355,-3.7618,-3.7671,-3.7245,-3.7243,-3.7241,-3.724,-3.7239,-3.7566,-3.7612,-3.7622,-3.7724,-3.7808,-3.7761,-3.7873,-3.7817,-3.7765,-3.7827,-3.786,-3.7857,-3.7847,-3.7846,-3.7848,-3.7849,-3.7849,-3.785,-3.7851,-3.7858,-3.7863,-3.7965,-3.801,-3.805,-3.8095,-3.8082,-3.8119,-3.8147,-3.8097,-3.8097,-3.8014,-3.7654,-3.7564,-3.7867,-3.7864,-3.7862,-3.786,-3.7859,-3.8274,-3.8171,-3.8328,-3.8369,-3.8416,-3.8504,-3.843,-3.8512,-3.8535,-3.8592,-3.8496,-3.8239,-3.8193,-3.8161,-3.8087,-3.8507,-3.8507,-3.8507,-3.8507,-3.8515,-3.8486,-3.8633,-3.8702,-3.8762,-3.8712,-3.8891,-3.8882,-3.8856,-3.8867,-3.8798,-3.8695,-3.8665,-3.8637,-3.8595,-3.8525,-3.9046,-3.9047,-3.9047,-3.8768,-3.8742,-3.8905,-3.8879,-3.8912,-3.8942,-3.9108,-3.9191,-3.914,-3.9068,-3.8874,-3.8852,-3.8684,-3.8632,-3.8556,-3.8493,-3.8363,0,0]},{"header":{"parameterUnit":"m.s-1","parameterCategory":1,"la1":30.2992,"la2":30.254,"lo1":-89.0895,"lo2":-89.0443,"dy":0.0025,"dx":0.0025,"nx":19,"ny":19,"refTime":"2026-04-09T03:00:00:Z","depth":0,"parameterNumber":3,"parameterNumberName":"V-component_of_WINDS"},"data":[0,0,0,0.7251,0.725,0.7187,0.7186,0.711,0.711,0,0,0,0,0,0,0,0,0,0,0,0.7275,0.7274,0.7251,0.725,0.7187,0.7186,0.711,0.711,0,0,0,0,0,0,0,0,0,0,0,0.7275,0.7275,0.7274,0.7249,0.7187,0.7186,0.711,0.7156,0,0,0,0,0,0,0,0,0,0,0.7216,0.7244,0.7275,0.7274,0.7249,0.7187,0.7186,0.7158,0.7153,0.7142,0,0.7135,0,0.7122,0.7105,0.7105,0,0,0,0.7245,0.7248,0.7227,0.7274,0.7249,0.7187,0.7214,0.7155,0.7149,0.7135,0.7134,0.7131,0.712,0.7105,0.7104,0.7063,0.7063,0,0,0.7248,0.7265,0.723,0.7223,0.7236,0.7216,0.7212,0.7152,0.715,0.7134,0.7129,0.7119,0.7104,0.7104,0.7063,0.7063,0,0,0,0.7262,0.7268,0.7248,0.7227,0.7215,0.7214,0.7209,0.7153,0.7145,0.7128,0.7118,0.7104,0.7103,0.7063,0.7063,0.7083,0,0,0,0.7263,0.7276,0.725,0.7259,0.7217,0.7184,0.7212,0.7149,0.7142,0.7119,0.7104,0.7102,0.7063,0.7063,0.7082,0.7089,0,0,0,0.7277,0.7277,0.727,0.7261,0.7235,0.7184,0.7173,0.7147,0.7136,0.7105,0.7102,0.7063,0.7063,0.7082,0.7088,0.7084,0,0,0,0.7295,0.7286,0.7271,0.7257,0.7235,0.7199,0.7173,0.7144,0.7119,0.7103,0.7063,0.7063,0.7082,0.7087,0.7084,0.7084,0.7086,0,0,0.7293,0.7286,0.7277,0.7261,0.7232,0.7207,0.7179,0.7138,0.7118,0.7082,0.7081,0.7083,0.7088,0.7084,0.7092,0.7094,0,0,0,0.7282,0.7275,0.7264,0.7243,0.7215,0.7191,0.7154,0.7139,0.7108,0.7104,0.708,0.7082,0.7079,0.7078,0.708,0.7076,0.7064,0.7064,0.7064,0.7301,0.7279,0.7262,0.7233,0.7214,0.7178,0.7159,0.7133,0.7113,0.7108,0.7097,0.7105,0.7105,0.7106,0.7102,0.7095,0.7096,0.7096,0.7096,0.7295,0.7282,0.7262,0.7237,0.7214,0.7192,0.7157,0.7145,0.712,0.7111,0.7107,0.7097,0.7108,0.7104,0.7097,0.7097,0.7097,0.7096,0.7096,0.7305,0.7295,0.7281,0.7251,0.723,0.72,0.718,0.7158,0.7137,0.7133,0.712,0.7119,0.7116,0.7129,0.7129,0.7129,0.7129,0.7129,0.7129,0.732,0.7304,0.729,0.7262,0.7248,0.7226,0.7191,0.7175,0.7152,0.7138,0.7137,0.7119,0.7114,0.7114,0.7129,0.7129,0.7129,0.7129,0.7129,0.7322,0.7319,0.7298,0.7284,0.7251,0.7232,0.7207,0.7177,0.716,0.7151,0.7134,0.7135,0.7125,0.7124,0.7123,0.7139,0.7139,0.7139,0.7139,0.733,0.7325,0.73,0.7279,0.7256,0.7232,0.7208,0.7182,0.7154,0.7142,0.7137,0.7134,0.7134,0.7124,0.7123,0.7121,0.7137,0.7137,0.7137,0.7329,0.7322,0.7306,0.7282,0.7255,0.7232,0.7209,0.7185,0.7151,0.7137,0.7133,0.7133,0.7128,0.7128,0.7111,0.711,0.7107,0,0]}]]